Hauptseite
METAR-TAF:

METAR-TAF

Flughäfen :

Corrientes, Argentinien

Breite: 27-27S, Länge: 058-46W, Höhe: 62 m

Beobachtung

Neuester Wetterbericht von vor 34 Minuten, um 02:00 UTC
Wind 4 kt aus Süd
Temperatur 20°C
Luftfeuchtigkeit 94%
Luftdruck 1013 hPa
Sichtweite: 9000 m
Leicht bewölkt in der Höhe von 4000 ft

METAR: SARC 180200Z 17004KT 9000 FEW040 20/19 Q1013

Zeit: 23:34 (02:34 UTC)


TAF: fehlend

Wetterbeobachtungen und Prognosen von mehr als 4000 Flughäfen (METAR und TAF Bericht).

Die verfügbaren Stationen werden durch gelbe und rote Markierungen auf der Karte dargestellt.

Führen Sie die Maus auf sie, um den Namen der Station zu sehen.

Darauf klicken, um die Beobachtung von Wetterbeobachtungen und Prognosen zu sehen.

Um die Karte zu ändern : klicken Sie auf den grünen Tasten mit einem schwarzen Kreuz Zum Vergrößern, auf den grünen Button mit einem Gedankenstrich zu verkleinern, oder auf die grünen Pfeile für benachbarte Karten.


METAR-TAF: